• Join FlightAware (Why Join?)
  • Login
  • US Flag 
10:52PM EDT


 

Airport Tracker/Info


-or-


 

Live Flight TrackerFlight Track Log ✈ XOJ782 ✈ 04-May-2013 ✈ KDUA - KBUR

Flight Track Log - Related Links

Times and Time Zones

All times are in EDT time to prevent confusion due to time zone crossing. See the XOJ782 flight status page for this flight to view local times or setup timezone preferences in your user account.

Time Position Orientation Groundspeed Altitude Reporting Facility
EDT Latitude Longitude Course Direction KTS MPH feet Rate Location/Type
08:50AM 34.0136 -96.5064 270° West 378 435 9,400  Level Fort Worth Center
08:51AM 34.0369 -96.5789 291° West 304 350 11,900 2,700 Climbing Fort Worth Center
08:52AM 34.0628 -96.6689 289° West 293 337 14,900 2,940 Climbing Fort Worth Center
08:53AM 34.0903 -96.7639 289° West 293 337 17,800 3,000 Climbing Fort Worth Center
08:54AM 34.1647 -97.0490 290° West  Level FlightAware Approximate
08:54AM 34.1178 -96.8567 290° West 293 337 20,900  Level Fort Worth Center
08:55AM 34.2000 -97.1863 270° West  Level FlightAware Approximate
08:55AM 34.1475 -96.9517 291° West 303 349 23,900  Level Fort Worth Center
08:56AM 34.1728 -97.0494 287° West 303 349 26,200 2,040 Climbing Fort Worth Center
08:57AM 34.2003 -97.1472 289° West 303 349 28,000 1,500 Climbing Fort Worth Center
08:58AM 34.1942 -97.2678 267° West 333 383 29,300 1,380 Climbing Fort Worth Center
08:59AM 34.1753 -97.3908 260° West 348 400 30,800 1,500 Climbing Fort Worth Center
09:00AM 34.1544 -97.5214 259° West 381 438 32,300 1,500 Climbing Fort Worth Center
09:01AM 34.1356 -97.6544 260° West 403 464 33,800 1,500 Climbing Fort Worth Center
09:02AM 34.1122 -97.7897 258° West 416 479 35,300 1,440 Climbing Fort Worth Center
09:03AM 34.0950 -97.9250 261° West 416 479 36,700 1,440 Climbing Fort Worth Center
09:04AM 34.0736 -98.0653 260° West 416 479 38,200 1,440 Climbing Fort Worth Center
09:05AM 34.0542 -98.1881 259° West 416 479 39,600 1,320 Climbing Fort Worth Center
09:06AM 34.0322 -98.3208 259° West 411 473 40,900 900 Climbing Fort Worth Center
09:07AM 34.0061 -98.4733 258° West 419 482 41,500 600 Climbing Fort Worth Center
09:08AM 33.9944 -98.6158 264° West 419 482 42,100 540 Climbing Fort Worth Center
09:09AM 34.0094 -98.7614 277° West 430 495 42,600 540 Climbing Fort Worth Center
09:10AM 34.0308 -98.8997 281° West 424 488 43,200 540 Climbing Fort Worth Center
09:11AM 34.0481 -99.0378 279° West 430 495 43,700 480 Climbing Fort Worth Center
09:12AM 34.0689 -99.1886 280° West 430 495 44,200 420 Climbing Fort Worth Center
09:13AM 34.0878 -99.3269 279° West 430 495 44,600 300 Climbing Fort Worth Center
09:14AM 34.1064 -99.4728 279° West 430 495 44,900 180 Climbing Fort Worth Center
09:15AM 34.1247 -99.6164 279° West 435 501 45,000  Climbing Fort Worth Center
09:16AM 34.1428 -99.7647 278° West 440 506 45,000  Level Fort Worth Center
09:17AM 34.1628 -99.9158 279° West 446 513 45,000  Level Fort Worth Center
09:18AM 34.1806 -100.0669 278° West 447 514 45,000  Level Fort Worth Center
09:19AM 34.2003 -100.2158 279° West 447 514 45,000  Level Fort Worth Center
09:20AM 34.2197 -100.3647 279° West 452 520 45,000  Level Fort Worth Center
09:21AM 34.2372 -100.5133 278° West 452 520 45,000  Level Fort Worth Center
09:22AM 34.2542 -100.6647 278° West 452 520 45,000  Level Fort Worth Center
09:23AM 34.2731 -100.8164 279° West 452 520 45,000  Level Fort Worth Center
09:24AM 34.2919 -100.9653 279° West 452 520 45,000  Level Fort Worth Center
09:25AM 34.3083 -101.1194 277° West 452 520 45,000  Level Fort Worth Center
09:26AM 34.3225 -101.2708 277° West 457 526 45,000  Level Fort Worth Center
09:27AM 34.3447 -101.4278 280° West 469 540 45,000  Level Fort Worth Center
09:29AM 34.3800 -101.7581 277° West 456 525 45,000  Level Albuquerque Center
09:30AM 34.3969 -101.9111 278° West 457 526 45,000  Level Albuquerque Center
09:31AM 34.4131 -102.0639 277° West 457 526 45,000  Level Albuquerque Center
09:32AM 34.4294 -102.2158 277° West 455 524 45,000  Level Albuquerque Center
09:33AM 34.4464 -102.3697 278° West 458 527 45,000  Level Albuquerque Center
09:34AM 34.4625 -102.5219 277° West 457 526 45,000  Level Albuquerque Center
09:35AM 34.4781 -102.6772 277° West 460 529 45,000  Level Albuquerque Center
09:36AM 34.4942 -102.8264 278° West 463 533 45,000  Level Albuquerque Center
09:37AM 34.5158 -102.9819 280° West 464 534 45,000  Level Albuquerque Center
09:38AM 34.5403 -103.1356 281° West 461 531 45,000  Level Albuquerque Center
09:39AM 34.5644 -103.2875 281° West 456 525 45,000  Level Albuquerque Center
09:40AM 34.5864 -103.4394 280° West 454 522 45,000  Level Albuquerque Center
09:41AM 34.6089 -103.5917 280° West 453 521 45,000  Level Albuquerque Center
09:42AM 34.6317 -103.7444 280° West 455 524 45,000  Level Albuquerque Center
09:43AM 34.6544 -103.8981 280° West 456 525 45,000  Level Albuquerque Center
09:44AM 34.6758 -104.0517 280° West 456 525 45,000  Level Albuquerque Center
09:45AM 34.6981 -104.2044 280° West 455 524 45,000  Level Albuquerque Center
09:46AM 34.7208 -104.3608 280° West 460 529 45,000  Level Albuquerque Center
09:47AM 34.7422 -104.5181 279° West 464 534 45,000  Level Albuquerque Center
09:48AM 34.7653 -104.6772 280° West 469 540 45,000  Level Albuquerque Center
09:49AM 34.7883 -104.8344 280° West 468 539 45,000  Level Albuquerque Center
09:50AM 34.8100 -104.9900 280° West 464 534 45,000  Level Albuquerque Center
09:51AM 34.8314 -105.1472 279° West 465 535 45,000  Level Albuquerque Center
09:52AM 34.8528 -105.3033 280° West 463 533 45,000  Level Albuquerque Center
09:53AM 34.8719 -105.4603 279° West 465 535 45,000  Level Albuquerque Center
09:54AM 34.8936 -105.6164 280° West 464 534 45,000  Level Albuquerque Center
09:55AM 34.9147 -105.7728 279° West 463 533 45,000  Level Albuquerque Center
09:56AM 34.9342 -105.9350 278° West 464 534 45,000  Level Albuquerque Center
09:57AM 34.9544 -106.0894 279° West 463 533 45,000  Level Albuquerque Center
09:58AM 34.9725 -106.2433 278° West 461 531 45,000  Level Albuquerque Center
09:59AM 34.9933 -106.3989 279° West 464 534 45,000  Level Albuquerque Center
10:00AM 35.0133 -106.5719 278° West 464 534 45,000  Level Albuquerque Center
10:01AM 35.0308 -106.7228 278° West 468 539 45,000  Level Albuquerque Center
10:02AM 35.0431 -106.8961 275° West 461 531 45,000  Level Albuquerque Center
10:03AM 35.0386 -107.0464 268° West 462 532 45,000  Level Albuquerque Center
10:04AM 35.0347 -107.1931 268° West 463 533 45,000  Level Albuquerque Center
10:05AM 35.0292 -107.3539 268° West 471 542 45,000  Level Albuquerque Center
10:06AM 35.0250 -107.5111 268° West 466 536 45,000  Level Albuquerque Center
10:07AM 35.0194 -107.6692 268° West 466 536 45,000  Level Albuquerque Center
10:08AM 35.0139 -107.8544 268° West 466 536 45,000  Level Albuquerque Center
10:09AM 35.0100 -108.0067 268° West 467 537 45,000  Level Albuquerque Center
10:10AM 35.0044 -108.1594 268° West 469 540 45,000  Level Albuquerque Center
10:11AM 34.9981 -108.3375 268° West 470 541 45,000  Level Albuquerque Center
10:12AM 34.9925 -108.4894 267° West 469 540 45,000  Level Albuquerque Center
10:13AM 34.9872 -108.6417 268° West 468 539 45,000  Level Albuquerque Center
10:14AM 34.9803 -108.8178 267° West 466 536 45,000  Level Albuquerque Center
10:16AM 34.9747 -108.9689 267° West 465 535 45,000  Level Albuquerque Center
10:17AM 34.9667 -109.1461 267° West 466 536 45,000  Level Albuquerque Center
10:18AM 34.9581 -109.2961 266° West 465 535 45,000  Level Albuquerque Center
10:19AM 34.9475 -109.4456 265° West 463 533 45,000  Level Albuquerque Center
10:20AM 34.9356 -109.6167 265° West 455 524 45,000  Level Albuquerque Center
10:21AM 34.9244 -109.7672 265° West 460 529 45,000  Level Albuquerque Center
10:23AM 34.9017 -110.0928 265° West 465 535 45,000  Level Albuquerque Center
10:24AM 34.8931 -110.2481 266° West 474 545 45,000  Level Albuquerque Center
10:25AM 34.8844 -110.4225 267° West 467 537 45,000  Level Albuquerque Center
10:26AM 34.8844 -110.5728 270° West 461 531 45,000  Level Albuquerque Center
10:27AM 34.8833 -110.7225 270° West 464 534 45,000  Level Albuquerque Center
10:28AM 34.8844 -110.8939 271° West 465 535 45,000  Level Albuquerque Center
10:29AM 34.8850 -111.0497 270° West 465 535 45,000  Level Albuquerque Center
10:30AM 34.8869 -111.2111 271° West 472 543 45,000  Level Albuquerque Center
10:31AM 34.8872 -111.3664 270° West 465 535 45,000  Level Albuquerque Center
10:32AM 34.8869 -111.5233 270° West 465 535 45,000  Level Albuquerque Center
10:33AM 34.8872 -111.6797 270° West 465 535 45,000  Level Albuquerque Center
10:34AM 34.8875 -111.8619 270° West 463 533 45,000  Level Albuquerque Center
10:35AM 34.8869 -112.0194 270° West 464 534 45,000  Level Albuquerque Center
10:36AM 34.8867 -112.1756 270° West 464 534 45,000  Level Albuquerque Center
10:37AM 34.8869 -112.3322 270° West 463 533 45,000  Level Albuquerque Center
10:38AM 34.8853 -112.4875 269° West 461 531 45,000  Level Albuquerque Center
10:39AM 34.8861 -112.6450 270° West 462 532 45,000  Level Albuquerque Center
10:40AM 34.8839 -112.8022 269° West 463 533 45,000  Level Albuquerque Center
10:41AM 34.8822 -112.9914 269° West 463 533 45,000  Level Albuquerque Center
10:42AM 34.8803 -113.1489 269° West 463 533 45,000  Level Albuquerque Center
10:43AM 34.8783 -113.3086 269° West 468 539 45,000  Level Albuquerque Center
10:44AM 34.8750 -113.4661 269° West 466 536 45,000  Level Albuquerque Center
10:45AM 34.8733 -113.6239 269° West 466 536 45,000  Level Albuquerque Center
10:46AM 34.8697 -113.7819 268° West 468 539 45,000 -120 Level Albuquerque Center
10:47AM 34.8678 -113.9397 269° West 467 537 44,800 -660 Descending Albuquerque Center
10:48AM 34.8644 -114.1225 269° West 462 532 43,700 -1,080 Descending Albuquerque Center
10:49AM 34.8611 -114.2806 269° West 464 534 42,700 -1,020 Descending Albuquerque Center
10:50AM 34.8578 -114.4408 269° West 469 540 41,600 -1,080 Descending Albuquerque Center
10:52AM 34.8553 -114.6281 269° West 461 531 40,400 -1,020 Descending Los Angeles Center
10:53AM 34.8506 -114.7844 268° West 460 529 39,400 -1,020 Descending Los Angeles Center
10:54AM 34.8464 -114.9397 268° West 458 527 38,400 -1,020 Descending Los Angeles Center
10:55AM 34.8417 -115.0956 268° West 458 527 37,400 -1,080 Descending Los Angeles Center
10:56AM 34.8369 -115.2811 268° West 457 526 36,200 -1,200 Descending Los Angeles Center
10:57AM 34.8322 -115.4331 268° West 452 520 35,000 -1,200 Descending Los Angeles Center
10:58AM 34.8278 -115.5836 268° West 451 519 33,800 -1,500 Descending Los Angeles Center
10:59AM 34.8236 -115.7375 268° West 452 520 32,000 -1,980 Descending Los Angeles Center
11:00AM 34.8189 -115.8844 268° West 440 506 29,800 -2,340 Descending Los Angeles Center
11:01AM 34.8136 -116.0342 268° West 441 507 27,300 -2,520 Descending Los Angeles Center
11:02AM 34.8064 -116.1903 267° West 451 519 24,700 -1,680 Descending Los Angeles Center
11:03AM 34.8017 -116.3419 268° West 453 521 23,900 -660 Descending Los Angeles Center
11:04AM 34.7956 -116.4883 267° West 438 504 23,400 -540 Descending Los Angeles Center
11:05AM 34.7769 -116.6667 263° West 441 507 22,800 -540 Descending Los Angeles Center
11:06AM 34.7625 -116.8164 263° West 445 512 22,300 -540 Descending Los Angeles Center
11:07AM 34.7467 -116.9642 263° West 442 509 21,800 -540 Descending Los Angeles Center
11:08AM 34.7322 -117.1103 263° West 438 504 21,300 -540 Descending Los Angeles Center
11:09AM 34.7167 -117.2525 262° West 429 494 20,800 -540 Descending Los Angeles Center
11:10AM 34.7017 -117.3989 263° West 430 495 20,300 -780 Descending Los Angeles Center
11:11AM 34.6864 -117.5450 263° West 433 498 19,200 -1,740 Descending Los Angeles Center
11:12AM 34.6719 -117.6853 263° West 422 486 16,800 -2,580 Descending Los Angeles Center
11:13AM 34.6578 -117.8211 263° West 409 471 14,000 -2,400 Descending Los Angeles Center
11:14AM 34.6425 -117.9567 262° West 404 465 12,000 -1,320 Descending Los Angeles Center
11:15AM 34.6242 -118.1000 261° West 354 407 11,400 -840 Descending Los Angeles Center
11:16AM 34.6025 -118.1972 255° West 292 336 10,400 -720 Descending Los Angeles Center
11:17AM 34.5836 -118.2764 254° West 251 289 10,000 -1,080 Descending Los Angeles Center
11:18AM 34.5683 -118.3472 255° West 269 310 8,200 -1,140 Descending Los Angeles Center
11:19AM 34.5406 -118.4517 252° West 277 319 7,700 -780 Descending Los Angeles Center
11:20AM 34.4881 -118.5108 223° Southwest 258 297 6,700 -840 Descending Los Angeles Center
11:21AM 34.4381 -118.5675 223° Southwest 249 287 6,000 -840 Descending Los Angeles Center
11:22AM 34.3722 -118.6267 217° Southwest 260 299 5,000 -540 Descending Los Angeles Center
11:23AM 34.3031 -118.6397 189° South 256 295 5,000 -240 Level Los Angeles Center
11:24AM 34.2364 -118.6311 174° South 247 284 4,600 -660 Descending Los Angeles Center
11:25AM 34.2167 -118.6167 149° Southeast 248 285 4,100 -840 Descending Southern California TRACON
11:26AM 34.2000 -118.5500 107° East 225 259 3,500 -780 Descending Southern California TRACON
11:27AM 34.2000 -118.4833 90° East 179 206 2,600 -840 Descending Southern California TRACON
11:28AM 34.2000 -118.4333 90° East 127 146 2,000 -780 Descending Southern California TRACON
11:29AM 34.2000 -118.3833 90° East 140 161 1,200 -540 Descending Southern California TRACON
11:30AM 34.1983 -118.3556 94° East 146 168 1,000 -240 Descending Los Angeles Center